Location: Logan
(41.7360°N, 111.8340°W)
Time: 10:39:19
(UTC-06:00)

Daily predictions for brighter satellites

Satellite Brightness Start Highest point End
(mag) Time Altitude Azimuth Time Altitude Azimuth Time Altitude Azimuth
CENTAUR R/B 4.1 21:23:18 10° ESE 21:24:44 11° ESE 21:26:12 10° E
Cosmos 2278 Rocket 4.1 21:20:18 10° SW 21:25:28 36° WNW 21:30:40 10° N
Cosmos 2298 Rocket 4.4 21:21:33 10° S 21:26:31 43° ESE 21:31:31 10° NNE
Meteor 1-29 3.9 21:23:31 10° NE 21:26:37 29° E 21:29:43 10° SSE
Hubble Space Telescope 3.0 21:25:36 10° SSW 21:27:08 12° S 21:28:41 10° SSE
Cosmos 1937 Rocket 3.8 21:27:53 10° S 21:32:44 44° ESE 21:37:37 10° NNE
Meteor 2-3 Rocket 4.2 21:28:36 10° SSE 21:33:55 41° E 21:39:13 10° NNE
Cosmos 2034 Rocket 4.1 21:28:25 10° N 21:34:40 90° W 21:40:51 10° S
SJ-11-01 4.3 21:30:57 10° SSE 21:35:41 84° ENE 21:40:25 10° NNW
Cosmos 1315 Rocket 2.8 21:32:36 10° S 21:36:37 80° E 21:40:41 10° NNE
COSMOS 2455 3.8 21:32:38 10° SSE 21:37:25 26° ESE 21:42:14 10° NE
Cosmos 1634 Rocket 4.5 21:40:34 10° N 21:46:34 45° ENE 21:52:34 10° SSE
Cosmos 2242 Rocket 4.2 21:43:40 10° NNW 21:48:05 58° W 21:52:26 10° S
ATLAS 5 CENTAUR R/B 4.2 21:44:18 10° N 21:48:31 20° NE 21:52:59 10° E
ATLAS 3B R/B 3.9 21:45:57 10° WSW 21:53:08 50° NW 22:00:03 10° NNE
SPOT 5 4.0 21:51:09 12° SE 21:55:33 35° ENE 22:00:21 10° N
Resurs 01 Rocket 4.0 21:55:28 10° SW 21:58:50 21° W 22:02:14 10° NW
Cosmos 2082 Rocket 3.3 21:54:31 10° NW 21:59:48 42° WSW 22:05:04 10° S
SAR-Lupe-4 3.5 21:56:30 10° SSE 22:00:04 85° ENE 22:03:40 10° NNW
Terra 3.9 21:58:12 10° E 22:00:26 13° ENE 22:02:41 10° NNE
YAOGAN 6 3.0 21:57:56 10° S 22:01:37 63° W 22:05:19 10° NNW
Timation 2 Rocket 4.2 21:56:38 10° NNW 22:02:54 74° WSW 22:09:26 10° SSE
MetOp-B 4.3 21:59:24 12° SSE 22:04:13 57° ENE 22:09:28 10° N
Tiangong 2 1.1 22:03:05 10° W 22:06:19 82° NNE 22:08:44 16° E
ARGOS 3.5 22:02:35 14° SE 22:07:01 50° ENE 22:12:12 10° N
ERS-1 Rocket 3.0 22:03:11 11° SSE 22:08:01 77° ENE 22:13:04 10° N
SPOT 1/Viking Rocket 4.5 22:04:50 15° SE 22:08:25 33° ENE 22:13:04 10° N
H-2A ROCKET BODY 3.6 22:07:11 10° SSW 22:09:50 18° SSE 22:11:45 16° SE
Cosmos 1939 Rocket 4.5 22:07:51 10° SSW 22:11:39 34° W 22:15:27 10° NNW
BREEZE-M DEB (TANK) 3.8 22:09:48 10° NW 22:12:36 41° NNE 22:21:33 10° E
GPS 2-04 Rocket1 3.6 22:10:40 10° SW 22:13:37 24° S 22:14:27 22° SSE
Aureole 3 3.4 22:12:20 22° SE 22:13:49 34° E 22:16:35 10° NNE
Cosmos 1825 3.3 22:12:33 20° SE 22:14:01 26° E 22:17:12 10° NNE
OAO 2 Rocket 4.3 22:11:28 10° WSW 22:15:51 30° SSW 22:18:24 19° SSE
Cosmos 1833 Rocket 4.3 22:12:23 10° NW 22:17:17 31° WSW 22:22:08 10° SSW
Cosmos 2084 4.4 22:14:05 10° NNW 22:17:32 31° NE 22:19:48 18° E
Lacrosse 5 rocket 2.8 22:19:48 16° E 22:19:48 16° E 22:20:59 10° ENE
SL-08 RB Rocket 4.1 22:15:09 19° SE 22:18:16 48° ENE 22:22:46 10° N
Cosmos 1892 3.3 22:17:09 10° SSW 22:20:58 57° W 22:24:47 10° N
SAR-Lupe-1 4.5 22:18:19 13° S 22:21:21 60° WSW 22:24:54 10° NNW
Cosmos 2344 4.3 22:15:57 10° SSE 22:22:27 31° ESE 22:29:18 10° NE
Cosmos 2142 Rocket 4.4 22:18:12 10° N 22:24:22 78° E 22:29:30 15° SSE
Aureole 1 4.1 22:22:20 16° S 22:24:34 63° ESE 22:27:46 10° NNE
H-2A R/B 4.1 22:23:41 10° E 22:25:11 12° ENE 22:26:53 10° NE
Cosmos 2279 Rocket 4.2 22:19:08 10° N 22:25:15 53° ENE 22:29:28 20° SSE
Helios 1B rocket 4.0 22:23:19 10° N 22:27:08 37° WNW 22:30:55 10° SW
NOSS 3-2 (A) 3.9 22:21:36 10° SW 22:27:33 65° NW 22:34:09 10° NNE
Cosmos 1346 Rocket 3.4 22:23:58 10° NNW 22:27:50 55° W 22:31:11 13° S
Cosmos 1408 3.0 22:28:14 27° SSE 22:29:46 43° E 22:33:19 10° NNE
Cosmos 2263 4.5 22:30:26 11° S 22:35:43 48° ESE 22:41:14 10° NE
USA 215 3.5 22:33:00 20° SSE 22:37:39 60° SW 22:44:08 10° NW
Lacrosse 4 Rocket 3.2 22:36:26 10° N 22:40:02 23° NE 22:42:08 17° E
Cosmos 1125 Rocket 3.7 22:37:40 19° S 22:41:12 50° ESE 22:46:15 10° NNE
Meteor 1-10 Rocket 4.3 22:37:55 10° N 22:43:55 77° E 22:47:37 24° SSE
NOSS 3-2 (C) 3.9 22:39:40 10° SW 22:45:39 64° NW 22:52:15 10° NNE
Meteor 1-27 Rocket 4.1 22:41:16 10° N 22:46:54 48° ENE 22:49:33 28° SE
Cosmos 372 Rocket 4.2 22:46:40 26° SSE 22:49:13 49° ESE 22:54:09 10° NNE
H-2A R/B 2.1 22:46:32 26° SSE 22:49:43 80° ENE 22:55:06 10° N
Cosmos 1943 Rocket 2.3 22:47:03 22° S 22:50:30 50° ESE 22:55:52 10° NE
Cosmos 1340 2.9 22:48:04 10° N 22:51:47 53° ENE 22:52:37 43° ESE
Cosmos 1606 2.5 22:48:16 10° N 22:52:04 89° E 22:53:22 40° S
Cosmos 2369 Rocket 2.2 22:51:23 10° SSW 22:57:02 82° WNW 23:02:46 10° NNE
Cosmos 1782 3.0 22:55:12 10° NNW 22:59:11 67° W 23:00:50 33° SSW
Shenzhou-11 Module 2.5 22:56:41 10° W 22:59:22 46° SW 22:59:22 46° SW
Okean 1-7 3.6 22:56:03 10° NNW 23:00:23 55° W 23:02:47 25° SSW
DNEPR-1 R/B 3.8 23:01:27 15° SSW 23:05:50 63° ESE 23:10:20 10° NE
Meteor 2-6 Rocket 4.4 23:01:51 10° NNW 23:07:45 75° W 23:11:09 27° S
Cosmos 1733 Rocket 3.0 23:12:03 51° SE 23:12:49 61° E 23:17:05 10° NNE
IGS 5A 3.5 23:13:06 51° ESE 23:13:48 60° ENE 23:17:55 10° N
CENTAUR R/B 2.4 23:07:58 10° SSW 23:13:55 76° ESE 23:20:44 10° NE
Cosmos 1862 3.2 23:14:32 54° S 23:15:23 87° E 23:19:23 10° N
ISS-0.223:20:57NE23:20:57NE23:11:08SW
Milstar 3 3.9 23:13:58 10° SW 23:20:57 27° S 23:20:57 27° S
Landsat 7 3.9 23:20:52 42° S 23:22:26 73° WSW 23:27:13 10° NNW
COSMOS 2455 3.6 23:17:07 10° SW 23:22:59 53° NW 23:28:53 10° NNE
DMSP B5D2-2 4.1 23:20:24 10° N 23:25:37 79° WNW 23:28:20 29° SSW
SPOT 5 4.5 23:30:24 18° SSW 23:33:33 32° W 23:38:18 10° NNW
GEOS 3 Rocket 3.9 23:32:32 42° S 23:33:55 54° WSW 23:39:03 10° NW
ATLAS 5 CENTAUR R/B 2.4 23:28:04 10° NNW 23:34:05 79° NE 23:36:19 43° SE
Terra 1.8 23:36:29 53° S 23:37:33 73° WSW 23:42:20 10° NNW
CZ-4C R/B 4.4 23:38:35 37° ENE 23:38:43 37° ENE 23:42:39 10° N
Cosmos 158 Rocket 4.4 23:37:22 10° NNW 23:42:04 47° WSW 23:43:12 40° SW
Meteor 2-20 Rocket 4.5 23:40:52 47° SSE 23:42:30 64° E 23:48:33 10° NNE
Meteor 2-20 4.3 23:40:41 43° S 23:42:50 82° E 23:48:59 10° N
Tiangong 2 3.5 23:40:09 10° W 23:41:06 17° W 23:41:06 17° W
CARTOSAT-1 3.8 23:42:31 53° SW 23:43:07 59° W 23:47:24 10° NNW
Cosmos 1092 Rocket 3.9 23:42:32 45° S 23:44:36 81° E 23:50:46 10° N
CZ-4B R/B 3.5 23:43:45 10° NNE 23:48:42 57° E 23:48:49 57° ESE
Cosmos 1674 Rocket 3.5 23:44:32 10° NNW 23:48:52 73° W 23:49:08 70° SW
Nadezhda 4 Rocket 4.2 23:46:21 30° SSW 23:49:30 66° W 23:55:40 10° N
Cosmos 1378 Rocket 3.6 23:47:55 10° N 23:52:16 66° ENE 23:52:16 66° ENE
Cosmos 2251 Rocket 3.7 23:48:20 10° N 23:53:29 54° ENE 23:54:13 50° E
